PST,Max TemperatureF,Mean TemperatureF,Min TemperatureF,Max Dew PointF,MeanDew PointF,Min DewpointF,Max Humidity, Mean Humidity, Min Humidity, Max Sea Level PressureIn, Mean Sea Level PressureIn, Min Sea Level PressureIn, Max VisibilityMiles, Mean VisibilityMiles, Min VisibilityMiles, Max Wind SpeedMPH, Mean Wind SpeedMPH, Max Gust SpeedMPH,PrecipitationIn, CloudCover, Events, WindDirDegrees
2012-11-1,69,57,45,53,49,45,93,71,49,30.05,30.01,29.97,10,9,1,10,4,,T,4,,332
2012-11-2,74,61,47,52,49,46,100,71,41,30.07,30.03,29.97,10,8,0,12,4,,0.00,4,Fog,56
2012-11-3,77,59,41,51,46,40,96,66,36,30.14,30.09,30.03,10,10,8,17,5,21,0.00,0,,88
2012-11-4,84,63,42,50,46,40,92,60,28,30.22,30.15,30.09,10,10,10,16,4,20,0.00,0,,83
2012-11-5,90,66,42,47,43,37,86,51,16,30.18,30.10,30.02,10,10,10,13,3,,0.00,0,,88
2012-11-6,91,67,42,43,38,31,89,51,12,30.12,30.05,29.97,10,10,10,14,3,15,0.00,0,,176
2012-11-7,82,61,40,50,40,31,96,57,17,30.06,29.99,29.92,10,10,8,16,4,,0.00,1,,244
2012-11-8,61,54,46,51,44,39,96,73,49,30.01,29.94,29.88,10,10,5,17,6,20,T,8,Rain,292
2012-11-9,60,46,32,40,35,31,100,68,36,30.01,29.94,29.89,10,10,10,15,3,18,T,2,,315
2012-11-10,60,44,27,37,30,25,92,62,31,30.25,30.11,30.02,10,10,10,18,5,24,0.00,1,,350
2012-11-11,62,44,26,33,25,21,85,53,20,30.37,30.33,30.26,10,10,10,17,4,24,0.00,0,,81
2012-11-12,68,47,26,27,24,20,75,47,19,30.38,30.30,30.21,10,10,10,17,6,21,0.00,0,,80
2012-11-13,72,51,30,30,27,23,69,43,16,30.25,30.16,30.06,10,10,10,20,5,23,0.00,0,,87
2012-11-14,71,50,29,32,28,21,69,46,23,30.14,30.07,30.00,10,10,10,9,2,14,0.00,0,,155
2012-11-15,66,49,32,47,36,25,83,57,30,30.07,30.03,30.00,10,10,9,12,2,28,T,2,Rain,190
2012-11-16,62,55,48,56,51,42,93,79,64,30.05,29.99,29.96,10,10,2,16,5,36,0.03,7,Rain,113
2012-11-17,64,58,52,59,55,51,93,83,72,30.10,29.99,29.92,10,9,2,17,9,23,0.11,7,Rain,188
2012-11-18,65,53,40,54,49,39,100,76,52,30.19,30.12,30.07,10,10,10,13,4,15,0.00,4,,191
2012-11-19,67,51,34,44,39,35,100,70,40,30.29,30.23,30.19,10,8,0,9,2,,0.00,1,Fog,141
2012-11-20,69,52,35,53,44,34,100,75,49,30.24,30.16,30.09,10,10,10,10,2,,0.00,1,,147
2012-11-21,70,56,41,54,46,41,100,79,57,30.19,30.14,30.09,10,6,0,17,6,21,0.00,3,Fog,97
2012-11-22,69,54,39,49,44,39,100,71,42,30.22,30.18,30.12,10,6,0,17,7,33,0.00,2,Fog,68
2012-11-23,76,56,36,45,42,37,100,64,27,30.25,30.19,30.12,10,10,5,14,4,17,0.00,0,,91
2012-11-24,78,57,35,44,41,35,100,63,25,30.18,30.08,29.99,10,10,9,15,3,17,0.00,0,,94
2012-11-25,74,54,34,45,41,34,100,67,34,30.02,29.96,29.87,10,9,4,14,2,17,0.00,0,,64
2012-11-26,69,51,33,48,40,33,100,71,42,30.11,30.04,29.97,10,6,1,17,3,35,0.00,0,,169
2012-11-27,63,51,39,48,43,39,100,78,56,30.16,30.10,30.04,10,8,2,10,3,15,0.00,3,,165
2012-11-28,62,51,39,56,50,39,100,82,64,30.10,30.05,30.00,10,8,2,24,7,31,0.21,6,Rain,151
2012-11-29,66,58,50,57,55,50,100,84,67,30.15,30.09,30.05,10,10,5,18,7,22,0.01,5,Rain,156
2012-11-30,63,60,56,59,57,55,100,92,84,30.11,30.03,29.99,10,8,2,25,7,35,0.23,7,Rain,186